Jefferson, NC

8:19 PM EDT on May 20, 2018 (GMT -0400)
Ashe County

Weather History for KGEV - January, 2000

Change the Weather History Date:

Monday, January 24, 2000

  Actual Average Record
Temperature  
Mean Temperature 30 °F -  
Max Temperature 32 °F 46 °F 64 °F (1972)
Min Temperature 28 °F 25 °F -4 °F (2014)
Degree Days  
Heating Degree Days 35    
Moisture  
Dew Point 26 °F    
Average Humidity 88    
Maximum Humidity 100    
Minimum Humidity 69    
Precipitation  
Precipitation 0.00 in - - ()
Sea Level Pressure  
Sea Level Pressure 29.86 in    
Wind  
Wind Speed 6 mph (NNW)    
Max Wind Speed 16 mph    
Max Gust Speed 23 mph    
Visibility 10 miles    
Events      
Averages and records for this station are not official NWS values.
T = Trace of Precipitation, MM = Missing Value Source: NWS Daily Summary

Daily Weather History Graph

Daily Weather History Graph

Search for Another Location

Airport or City:

Astronomy

Jan. 24, 2000 Rise Set
Actual Time 7:33 AM EST 5:42 PM EST
Civil Twilight 7:05 AM EST 6:10 PM EST
Nautical Twilight 6:34 AM EST 6:41 PM EST
Astronomical Twilight 6:03 AM EST 7:12 PM EST
Moon 9:49 PM EST (1/24) 10:02 AM EST (1/24)
Length of Visible Light 11h 04m
Length of Day
10h 09m
Waning Gibbous, 84% of the Moon is Illuminated
Jan 24
Waning Gibbous
Jan 28
Last Quarter
Feb 5
New
Feb 12
First Quarter
Feb 19
Full

Hourly Weather History & Observations

Time (EST) Temp. Windchill Dew Point Humidity Pressure Visibility Wind Dir Wind Speed Gust Speed Precip Events Conditions
12:16 AM 30.2 °F 26.7 °F 28.4 °F 93% 29.92 in 10.0 mi NNW 3.5 mph - N/A   Overcast
12:36 AM 30.2 °F 26.7 °F 28.4 °F 93% 29.91 in 10.0 mi North 3.5 mph - N/A   Overcast
12:56 AM 30.2 °F 25.4 °F 28.4 °F 93% 29.90 in 10.0 mi NNW 4.6 mph - N/A   Overcast
1:16 AM 30.2 °F - 28.4 °F 93% 29.91 in 10.0 mi Calm Calm - N/A   Overcast
1:36 AM 30.2 °F 26.7 °F 28.4 °F 93% 29.91 in 10.0 mi NNW 3.5 mph - N/A   Overcast
1:56 AM 30.2 °F 25.4 °F 28.4 °F 93% 29.91 in 10.0 mi NW 4.6 mph - N/A   Overcast
2:16 AM 30.2 °F 22.6 °F 28.4 °F 93% 29.91 in 10.0 mi NW 8.1 mph - N/A   Overcast
2:36 AM 30.2 °F 24.3 °F 28.4 °F 93% 29.92 in 10.0 mi NW 5.8 mph - N/A   Overcast
2:56 AM 30.2 °F 24.3 °F 28.4 °F 93% 29.92 in 10.0 mi NNW 5.8 mph - N/A   Overcast
3:16 AM 30.2 °F 26.7 °F 28.4 °F 93% 29.90 in 10.0 mi NW 3.5 mph - N/A   Overcast
3:36 AM 28.4 °F 22.2 °F 28.4 °F 100% 29.88 in 10.0 mi NNW 5.8 mph - N/A   Overcast
3:56 AM 28.4 °F 20.4 °F 28.4 °F 100% 29.86 in 10.0 mi NNW 8.1 mph - N/A   Scattered Clouds
4:16 AM 28.4 °F 20.4 °F 28.4 °F 100% 29.84 in 10.0 mi NNW 8.1 mph - N/A   Scattered Clouds
4:36 AM 28.4 °F 22.2 °F 28.4 °F 100% 29.85 in 10.0 mi North 5.8 mph - N/A   Mostly Cloudy
4:56 AM 28.4 °F 21.2 °F 28.4 °F 100% 29.86 in 10.0 mi NNW 6.9 mph - N/A   Overcast
5:16 AM 28.4 °F 20.4 °F 28.4 °F 100% 29.85 in 10.0 mi NW 8.1 mph - N/A   Overcast
5:36 AM 28.4 °F 22.2 °F 28.4 °F 100% 29.85 in 10.0 mi NNW 5.8 mph - N/A   Overcast
5:56 AM 28.4 °F 21.2 °F 28.4 °F 100% 29.84 in 10.0 mi North 6.9 mph - N/A   Overcast
6:16 AM 28.4 °F 23.3 °F 28.4 °F 100% 29.85 in 10.0 mi North 4.6 mph - N/A   Overcast
6:36 AM 28.4 °F 22.2 °F 28.4 °F 100% 29.86 in 10.0 mi NNW 5.8 mph - N/A   Overcast
6:56 AM 28.4 °F 20.4 °F 28.4 °F 100% 29.88 in 10.0 mi NNW 8.1 mph - N/A   Mostly Cloudy
7:16 AM 28.4 °F 22.2 °F 26.6 °F 93% 29.90 in 10.0 mi NNW 5.8 mph - N/A   Overcast
7:36 AM 28.4 °F 19.7 °F 26.6 °F 93% 29.90 in 10.0 mi NNW 9.2 mph - N/A   Mostly Cloudy
7:56 AM 28.4 °F 21.2 °F 26.6 °F 93% 29.91 in 10.0 mi NNW 6.9 mph - N/A   Scattered Clouds
8:16 AM 28.4 °F 23.3 °F 26.6 °F 93% 29.91 in 10.0 mi North 4.6 mph - N/A   Scattered Clouds
8:36 AM 28.4 °F 22.2 °F 26.6 °F 93% 29.92 in 10.0 mi NNW 5.8 mph - N/A   Clear
8:56 AM 28.4 °F 23.3 °F 26.6 °F 93% 29.92 in 10.0 mi NW 4.6 mph - N/A   Clear
9:16 AM 28.4 °F 20.4 °F 26.6 °F 93% 29.92 in 10.0 mi NW 8.1 mph - N/A   Clear
9:36 AM 28.4 °F 22.2 °F 26.6 °F 93% 29.92 in 10.0 mi NNW 5.8 mph - N/A   Clear
9:56 AM 28.4 °F 19.7 °F 26.6 °F 93% 29.91 in 10.0 mi NNW 9.2 mph - N/A   Clear
10:16 AM 28.4 °F 19.1 °F 24.8 °F 86% 29.91 in 10.0 mi NW 10.4 mph 16.1 mph N/A   Clear
10:36 AM 28.4 °F 19.1 °F 24.8 °F 86% 29.91 in 10.0 mi NNW 10.4 mph 17.3 mph N/A   Clear
10:56 AM 30.2 °F 21.9 °F 24.8 °F 80% 29.91 in 10.0 mi NNW 9.2 mph 18.4 mph N/A   Clear
11:16 AM 30.2 °F 21.9 °F 24.8 °F 80% 29.90 in 10.0 mi NNW 9.2 mph - N/A   Clear
11:36 AM 30.2 °F 20.2 °F 24.8 °F 80% 29.88 in 10.0 mi NNW 12.7 mph 16.1 mph N/A   Clear
11:56 AM 30.2 °F 20.8 °F 24.8 °F 80% 29.86 in 10.0 mi NW 11.5 mph - N/A   Clear
12:16 PM 30.2 °F 20.8 °F 24.8 °F 80% 29.86 in 10.0 mi NNW 11.5 mph 20.7 mph N/A   Clear
12:36 PM 30.2 °F 21.3 °F 24.8 °F 80% 29.86 in 10.0 mi NNW 10.4 mph 18.4 mph N/A   Clear
12:56 PM 30.2 °F 21.3 °F 24.8 °F 80% 29.85 in 10.0 mi NNW 10.4 mph 18.4 mph N/A   Clear
1:16 PM 30.2 °F 20.2 °F 24.8 °F 80% 29.84 in 10.0 mi NW 12.7 mph 17.3 mph N/A   Scattered Clouds
1:36 PM 30.2 °F 24.3 °F 26.6 °F 86% 29.85 in 10.0 mi NNW 5.8 mph - N/A   Scattered Clouds
1:56 PM 30.2 °F 21.9 °F 24.8 °F 80% 29.82 in 10.0 mi NW 9.2 mph - N/A   Scattered Clouds
2:16 PM 30.2 °F 22.6 °F 24.8 °F 80% 29.82 in 10.0 mi NNW 8.1 mph 16.1 mph N/A   Scattered Clouds
2:36 PM 30.2 °F 21.3 °F 24.8 °F 80% 29.81 in 10.0 mi NW 10.4 mph - N/A   Clear
2:56 PM 32.0 °F 24.2 °F 24.8 °F 75% 29.81 in 10.0 mi NNW 9.2 mph 16.1 mph N/A   Clear
3:16 PM 32.0 °F 23.0 °F 26.6 °F 80% 29.81 in 10.0 mi NW 11.5 mph 17.3 mph N/A   Scattered Clouds
3:36 PM 32.0 °F 23.6 °F 24.8 °F 75% 29.80 in 10.0 mi NW 10.4 mph 17.3 mph N/A   Scattered Clouds
3:56 PM 32.0 °F 21.2 °F 23.0 °F 69% 29.80 in 10.0 mi NNW 16.1 mph 23.0 mph N/A   Mostly Cloudy
4:16 PM 32.0 °F 23.0 °F 23.0 °F 69% 29.79 in 10.0 mi NW 11.5 mph 17.3 mph N/A   Mostly Cloudy
4:36 PM 32.0 °F 24.8 °F 24.8 °F 75% 29.80 in 10.0 mi NW 8.1 mph 17.3 mph N/A   Scattered Clouds
4:56 PM 32.0 °F 24.8 °F 24.8 °F 75% 29.79 in 10.0 mi WNW 8.1 mph - N/A   Scattered Clouds
5:56 PM 30.2 °F 24.3 °F 23.0 °F 75% 29.79 in 10.0 mi NW 5.8 mph - N/A   Overcast
6:16 PM 30.2 °F 21.9 °F 23.0 °F 75% 29.78 in 10.0 mi NW 9.2 mph - N/A   Scattered Clouds
6:36 PM 28.4 °F 20.4 °F 23.0 °F 80% 29.78 in 10.0 mi NW 8.1 mph - N/A   Clear
6:56 PM 28.4 °F 22.2 °F 23.0 °F 80% 29.78 in 10.0 mi NNW 5.8 mph - N/A   Mostly Cloudy
7:16 PM 28.4 °F 21.2 °F 23.0 °F 80% 29.78 in 10.0 mi NNW 6.9 mph - N/A   Overcast
7:36 PM 28.4 °F 19.7 °F 24.8 °F 86% 29.77 in 10.0 mi NNW 9.2 mph - N/A   Overcast
7:56 PM 28.4 °F 19.7 °F 23.0 °F 80% 29.77 in 10.0 mi NW 9.2 mph - N/A   Overcast
8:16 PM 28.4 °F 22.2 °F 23.0 °F 80% 29.76 in 10.0 mi NW 5.8 mph - N/A   Overcast
8:36 PM 28.4 °F 21.2 °F 23.0 °F 80% 29.77 in 10.0 mi NW 6.9 mph - N/A   Overcast
8:56 PM 28.4 °F 21.2 °F 23.0 °F 80% 29.75 in 10.0 mi NW 6.9 mph - N/A   Overcast
9:16 PM 28.4 °F 19.1 °F 23.0 °F 80% 29.75 in 10.0 mi WNW 10.4 mph 16.1 mph N/A   Mostly Cloudy
9:36 PM 28.4 °F 19.1 °F 23.0 °F 80% 29.74 in 10.0 mi WNW 10.4 mph 17.3 mph N/A   Scattered Clouds
9:56 PM 28.4 °F 19.7 °F 23.0 °F 80% 29.74 in 10.0 mi NW 9.2 mph - N/A   Clear
10:16 PM 28.4 °F 18.0 °F 23.0 °F 80% 29.71 in 10.0 mi WNW 12.7 mph 18.4 mph N/A   Clear
10:36 PM 26.6 °F 15.2 °F 21.2 °F 80% 29.72 in 10.0 mi WNW 13.8 mph 19.6 mph N/A   Clear
10:56 PM 26.6 °F 16.2 °F 21.2 °F 80% 29.70 in 10.0 mi WNW 11.5 mph 18.4 mph N/A   Mostly Cloudy
11:16 PM 28.4 °F 18.0 °F 23.0 °F 80% 29.69 in 10.0 mi WNW 12.7 mph 21.9 mph N/A   Overcast
11:36 PM 26.6 °F 16.2 °F 21.2 °F 80% 29.67 in 10.0 mi WNW 11.5 mph 17.3 mph N/A   Mostly Cloudy
11:56 PM 26.6 °F 16.8 °F 19.4 °F 74% 29.66 in 10.0 mi WNW 10.4 mph 17.3 mph N/A   Clear